Flag for Japan Weather past 2 weeks in Minamisōma, Japan

Now
70 °F

Mild.


Feels Like: 65 °F
Forecast: 66 / 76 °F
Wind: 5 mph from North

Location: Sendai

Current Time: Aug 30, 2014 at 1:40:47 AM

Latest Report: Aug 30, 2014 at 1:00 AM


Visibility: N/A

Pressure: 30.01 "Hg

Humidity: 94%

Dew point: 68 °F

Location of MinamisōmaLocation

Historic Weather in Minamisōma — Graph

°F

Minamisōma temperature yesterday

Maximum temperature yesterday: 77 °F (at 2:00 PM)
Minimum temperature yesterday: 68 °F (at 12:00 AM)
Average temperature yesterday: 71 °F

Past Weeks' High & Low Weather Summary

 TemperatureHumidityPressure
High95 °F (Aug 20, 1:00 PM)100% (Aug 15, 11:00 PM)30.04 "Hg (Aug 15, 11:00 PM)
Low64 °F (Aug 28, 12:00 AM)41% (Aug 24, 2:00 PM)29.70 "Hg (Aug 15, 5:00 PM)
Average75 °F88%29.91 "Hg
* Reported Midnight between Aug 14 and Aug 15 — Midnight between Aug 29 and Aug 30, Minamisōma, Weather by CustomWeather, © 2014

Note: Actual official high and low records may vary slightly from our data, if they occured in-between our weather recording intervals... More about our weather records

Advertising

Minamisōma weather history for previous 24 hours

 ConditionsComfort  
Time TempWeatherWind HumidityBarometerVisibility
12:00 AM
Aug 30
70 °FMild.3 mph93%30.02 "HgN/A
11:00 PM
Aug 29
71 °FMild.1 mph92%30.04 "HgN/A
10:00 PM71 °FMild.3 mph92%30.03 "HgN/A
9:00 PM71 °FOvercast.3 mph89%30.03 "Hg9 mi
8:00 PM72 °FMild.5 mph84%30.03 "HgN/A
7:00 PM72 °FMild.6 mph84%30.03 "HgN/A
6:00 PM73 °FOvercast.7 mph79%30.01 "Hg12 mi
5:00 PM73 °FMild.12 mph76%30.01 "HgN/A
4:00 PM74 °FMild.10 mph71%30.01 "HgN/A
3:00 PM75 °FOvercast.10 mph70%30.00 "Hg12 mi
2:00 PM77 °FMild.13 mph67%30.00 "HgN/A
1:00 PM76 °FMild.12 mph70%30.00 "HgN/A
12:00 PM75 °FOvercast.10 mph71%30.01 "Hg12 mi
11:00 AM74 °FMild.10 mph74%30.02 "HgN/A
10:00 AM74 °FMild.5 mph74%30.03 "HgN/A
9:00 AM73 °FOvercast.3 mph81%30.03 "Hg9 mi
8:00 AM71 °FMild.3 mph89%30.03 "HgN/A
7:00 AM69 °FMild.1 mph98%30.03 "HgN/A
6:00 AM68 °FFog.2 mph100%30.02 "Hg5 mi
5:00 AM68 °FMild.3 mph100%30.02 "HgN/A
4:00 AM68 °FMild.3 mph100%30.01 "HgN/A
3:00 AM68 °FDrizzle. Overcast.2 mph100%30.01 "Hg2 mi
2:00 AM68 °FMild.2 mph100%30.01 "HgN/A
1:00 AM68 °FMild.3 mph100%30.01 "HgN/A
Weather by CustomWeather, © 2014

See weather overviewHow to use our weather pages